Location: Hac?musa Deresi
(39.1694°N, 32.2508°E)
Time: 16:27:27
(UTC+00:00)

BREEZE-M DEB (TANK) - Pass Details

Date: 22 April 2026
Orbit: 346 x 16119 km, 49.4° (Epoch: 11 May)

Event Time Altitude Azimuth Distance (km) Brightness Sun altitude
Rises 19:37:50 0° 304° (NW) 2,577 6.8 -30.0°
Reaches altitude 10° 19:39:12 10° 306° (NW) 1,951 5.9 -30.2°
Maximum altitude 19:43:04 84° 34° (NE) 1,058 3.5 -30.6°
Enters shadow 19:43:14 83° 70° (ENE) 1,084 3.5 -30.6°
